map of BZV home
Great Circle Mapper logo
BZV - Airport
Location
City:  Brazzaville, Republic of Congo
Name:Maya Maya
ICAO / IATA:FCBB / BZV

Details
Type:Airport (Aerodrome, Airfield)
Use:Public/Civil
Latitude:415'02"S (-4.250499)
Longitude:1515'05"E (15.251500)
Elevation:1048 ft (319 m)
Variation:1.8W (WMM2010 magnetic declination)
Runways:2
Longest:10827 × 148 ft (3300 × 45 m)

Time
Time Zone:UTC+1
Local Time:

Weather
METAR:FCBB 261000Z 20003KT 170V240 9999 SCT020 29/23 Q1013 NOSIG
TAF:FCBB 260500Z 2606/2712 24004KT 9000 FEW015
BECMG 2611/2613 FEW020 FEW030CB
BECMG 2619/2621 SCT015

Related Locations
Nearby:
Farthest:PLPA: 12228 mi / 19679 km
Palmyra Island Atoll [Palmyra Airport (Cooper)], UM

Find:

   beyond  
but within

Other Information
Maps:
NOTAMs:
Links:
Sources:

  
flag of Republic of Congo   

Sectional Chart

Flight Planning
at skyvector.com

Satellite Image

Google Maps Satellite View

 

Copyright © 2004-2014 Karl L. Swartz. All rights reserved.
The Great Circle Mapper name and logo are trademarks of the Great Circle Mapper.
All other trademarks mentioned herein belong to their respective owners.
Please see credits for attibutions and further copyright information.

  Follow gcmap on Facebook Follow gcmap on Twitter

hCard Microformat

Geo Microformat